Location: Unspecified
(50.1700°N, 6.8600°E)
Time: 19:09:18
(UTC+00:00)

IDEFIX/ARIANE 42P - Pass Details

Date: 24 January 2019
Orbit: 786 x 802 km, 98.3° (Epoch: 19 February)

Event Time Altitude Azimuth Distance (km) Brightness Sun altitude
Rises 04:53:13 0° 9° (N) 3,327 5.9 -22.8°
Reaches altitude 10° 04:55:41 10° 2° (N) 2,393 5.0 -22.4°
Enters shadow 04:59:39 37° 319° (NW) 1,238 3.2 -21.8°
